| time (UTC) | temp F | wind direction | speed MPH | gust MPH | rain 1hr in | rain 24hr in | rain mn in | humidity % | barometer mb |
| 20260831050056 | 71 | 184 | 0.0 | 3.0 | 0.00 | 0.00 | 0.00 | 96 | 1008.6 |
| 20260831044607 | 71 | 169 | 1.0 | 3.0 | 0.00 | 0.00 | 0.00 | 96 | 1008.6 |
| 20260831043056 | 71 | 169 | 1.0 | 3.0 | 0.00 | 0.00 | 0.00 | 95 | 1008.4 |
| 20260831041555 | 71 | 171 | 1.0 | 3.0 | 0.00 | 0.00 | 0.00 | 95 | 1008.4 |
| 20260831040055 | 71 | 177 | 1.0 | 3.0 | 0.00 | 0.00 | 0.00 | 95 | 1008.2 |
| 20260831034554 | 71 | 167 | 2.0 | 4.0 | 0.00 | 0.00 | 0.00 | 96 | 1008.2 |
| 20260831033053 | 71 | 186 | 2.0 | 5.0 | 0.00 | 0.00 | 0.00 | 95 | 1008.4 |
| 20260831031553 | 72 | 179 | 2.0 | 4.0 | 0.00 | 0.00 | 0.00 | 95 | 1008.5 |
| 20260831030052 | 72 | 190 | 2.0 | 5.0 | 0.00 | 0.00 | 0.00 | 95 | 1008.4 |
| 20260831024552 | 72 | 168 | 1.0 | 3.0 | 0.00 | 0.00 | 0.00 | 95 | 1008.6 |
| 20260831023051 | 72 | 169 | 1.0 | 3.0 | 0.00 | 0.00 | 0.00 | 94 | 1008.8 |
| 20260831021549 | 73 | 141 | 1.0 | 4.0 | 0.00 | 0.00 | 0.00 | 94 | 1008.7 |
| 20260831020053 | 73 | 188 | 1.0 | 3.0 | 0.00 | 0.00 | 0.00 | 93 | 1008.7 |
| 20260831014549 | 73 | 179 | 0.0 | 4.0 | 0.00 | 0.00 | 0.00 | 93 | 1008.5 |
| 20260831013103 | 74 | 182 | 1.0 | 4.0 | 0.00 | 0.00 | 0.00 | 92 | 1008.4 |
| 20260831011549 | 74 | 173 | 2.0 | 4.0 | 0.00 | 0.00 | 0.00 | 91 | 1008.4 |
| 20260831010052 | 75 | 160 | 1.0 | 4.0 | 0.00 | 0.00 | 0.00 | 89 | 1008.2 |
| 20260831004547 | 75 | 170 | 1.0 | 4.0 | 0.00 | 0.00 | 0.00 | 87 | 1008.2 |
| 20260831003046 | 76 | 171 | 1.0 | 4.0 | 0.00 | 0.00 | 0.00 | 86 | 1008.1 |
| 20260831001545 | 77 | 181 | 2.0 | 5.0 | 0.00 | 0.00 | 0.00 | 85 | 1008.0 |
| 20260831000045 | 77 | 176 | 1.0 | 4.0 | 0.00 | 0.00 | 0.00 | 83 | 1007.9 |
| 20260830234552 | 78 | 179 | 3.0 | 8.0 | 0.00 | 0.00 | 0.00 | 83 | 1007.8 |
| 20260830233044 | 78 | 163 | 2.0 | 8.0 | 0.00 | 0.00 | 0.00 | 82 | 1007.8 |
| 20260830231544 | 79 | 169 | 2.0 | 5.0 | 0.00 | 0.00 | 0.00 | 81 | 1007.9 |
| 20260830230043 | 80 | 184 | 2.0 | 6.0 | 0.00 | 0.00 | 0.00 | 81 | 1007.7 |
| 20260830224542 | 80 | 145 | 3.0 | 7.0 | 0.00 | 0.00 | 0.00 | 81 | 1007.6 |
| 20260830223056 | 80 | 157 | 2.0 | 7.0 | 0.00 | 0.00 | 0.00 | 80 | 1007.7 |
| 20260830221547 | 80 | 167 | 2.0 | 6.0 | 0.00 | 0.00 | 0.00 | 78 | 1007.6 |
| 20260830220041 | 82 | 168 | 2.0 | 6.0 | 0.00 | 0.00 | 0.00 | 78 | 1007.2 |
| 20260830214539 | 81 | 157 | 2.0 | 5.0 | 0.00 | 0.00 | 0.00 | 79 | 1007.2 |
| 20260830213038 | 81 | 184 | 4.0 | 9.0 | 0.00 | 0.00 | 0.00 | 77 | 1007.5 |
| 20260830211537 | 82 | 200 | 4.0 | 11.0 | 0.00 | 0.00 | 0.00 | 76 | 1007.7 |
| 20260830210037 | 81 | 211 | 4.0 | 11.0 | 0.00 | 0.00 | 0.00 | 77 | 1007.7 |
| 20260830204540 | 82 | 164 | 4.0 | 11.0 | 0.00 | 0.00 | 0.00 | 74 | 1007.7 |
| 20260830203036 | 82 | 176 | 3.0 | 8.0 | 0.00 | 0.00 | 0.00 | 74 | 1007.7 |
| 20260830201534 | 82 | 259 | 3.0 | 10.0 | 0.00 | 0.00 | 0.00 | 74 | 1007.7 |
| 20260830200044 | 83 | 186 | 3.0 | 9.0 | 0.00 | 0.00 | 0.00 | 76 | 1007.8 |
| 20260830194532 | 83 | 179 | 5.0 | 9.0 | 0.00 | 0.00 | 0.00 | 74 | 1007.7 |
| 20260830193032 | 83 | 198 | 4.0 | 11.0 | 0.00 | 0.00 | 0.00 | 72 | 1007.9 |
| 20260830191531 | 84 | 195 | 5.0 | 10.0 | 0.00 | 0.00 | 0.00 | 71 | 1007.8 |
| 20260830190042 | 84 | 154 | 4.0 | 10.0 | 0.00 | 0.00 | 0.00 | 73 | 1007.9 |
| 20260830184528 | 83 | 257 | 5.0 | 11.0 | 0.00 | 0.00 | 0.00 | 74 | 1007.9 |
| 20260830183028 | 83 | 240 | 3.0 | 9.0 | 0.00 | 0.00 | 0.00 | 75 | 1008.0 |
| 20260830181527 | 82 | 198 | 3.0 | 10.0 | 0.00 | 0.00 | 0.00 | 75 | 1008.0 |
| 20260830180029 | 82 | 210 | 4.0 | 11.0 | 0.00 | 0.00 | 0.00 | 75 | 1007.8 |
| 20260830174526 | 83 | 224 | 3.0 | 7.0 | 0.00 | 0.00 | 0.00 | 73 | 1007.8 |
| 20260830173024 | 83 | 157 | 2.0 | 5.0 | 0.00 | 0.00 | 0.00 | 76 | 1007.9 |
| 20260830171522 | 83 | 205 | 3.0 | 7.0 | 0.00 | 0.00 | 0.00 | 76 | 1008.0 |
| 20260830170019 | 81 | 200 | 0.0 | 4.0 | 0.00 | 0.00 | 0.00 | 79 | 1008.0 |
| 20260830164516 | 80 | 229 | 2.0 | 7.0 | 0.00 | 0.00 | 0.00 | 79 | 1008.3 |
| 20260830163013 | 79 | 203 | 4.0 | 8.0 | 0.00 | 0.00 | 0.00 | 81 | 1008.7 |
| 20260830161511 | 78 | 244 | 4.0 | 9.0 | 0.00 | 0.00 | 0.00 | 81 | 1009.2 |
| 20260830160009 | 78 | 226 | 2.0 | 9.0 | 0.00 | 0.00 | 0.00 | 83 | 1009.2 |
| 20260830154509 | 78 | 242 | 4.0 | 9.0 | 0.00 | 0.01 | 0.00 | 82 | 1008.9 |
| 20260830153007 | 78 | 180 | 2.0 | 8.0 | 0.00 | 0.01 | 0.00 | 82 | 1008.4 |
| 20260830151504 | 77 | 234 | 2.0 | 10.0 | 0.00 | 0.01 | 0.00 | 83 | 1008.2 |
| 20260830150007 | 77 | 198 | 2.0 | 10.0 | 0.00 | 0.01 | 0.00 | 84 | 1007.9 |
| 20260830144501 | 76 | 234 | 2.0 | 6.0 | 0.00 | 0.01 | 0.00 | 85 | 1007.9 |
| 20260830143105 | 75 | 245 | 2.0 | 6.0 | 0.00 | 0.01 | 0.00 | 85 | 1007.8 |
| 20260830141551 | 75 | 205 | 3.0 | 8.0 | 0.00 | 0.01 | 0.00 | 85 | 1007.6 |
| 20260830140047 | 74 | 210 | 2.0 | 6.0 | 0.00 | 0.01 | 0.00 | 87 | 1007.7 |
| 20260830134545 | 73 | 200 | 2.0 | 4.0 | 0.00 | 0.01 | 0.00 | 90 | 1007.9 |
| 20260830133038 | 72 | 196 | 0.0 | 0.0 | 0.00 | 0.01 | 0.00 | 92 | 1008.1 |
| 20260830131534 | 70 | 180 | 1.0 | 2.0 | 0.00 | 0.01 | 0.00 | 94 | 1008.1 |
| 20260830130040 | 69 | 187 | 0.0 | 2.0 | 0.00 | 0.01 | 0.00 | 95 | 1008.2 |
| 20260830124533 | 69 | 174 | 0.0 | 2.0 | 0.00 | 0.07 | 0.00 | 95 | 1008.1 |
| 20260830123032 | 68 | 177 | 0.0 | 2.0 | 0.00 | 0.07 | 0.00 | 95 | 1007.9 |
| 20260830121537 | 68 | 184 | 1.0 | 2.0 | 0.00 | 0.07 | 0.00 | 95 | 1007.8 |
| 20260830120031 | 67 | 177 | 1.0 | 2.0 | 0.00 | 0.07 | 0.00 | 95 | 1007.9 |
| 20260830114530 | 67 | 177 | 1.0 | 2.0 | 0.00 | 0.15 | 0.00 | 95 | 1007.9 |
| 20260830113029 | 68 | 176 | 1.0 | 3.0 | 0.00 | 0.15 | 0.00 | 95 | 1007.9 |
| 20260830111528 | 68 | 187 | 1.0 | 3.0 | 0.00 | 0.15 | 0.00 | 95 | 1007.8 |
| 20260830110026 | 68 | 169 | 0.0 | 3.0 | 0.00 | 0.15 | 0.00 | 95 | 1007.9 |
| 20260830104550 | 68 | 177 | 0.0 | 0.0 | 0.00 | 0.35 | 0.00 | 95 | 1007.9 |
| 20260830103029 | 68 | 184 | 0.0 | 0.0 | 0.00 | 0.35 | 0.00 | 95 | 1008.0 |
| 20260830101523 | 68 | 184 | 0.0 | 0.0 | 0.00 | 0.35 | 0.00 | 95 | 1008.2 |
| 20260830100023 | 68 | 185 | 0.0 | 0.0 | 0.00 | 0.35 | 0.00 | 95 | 1008.3 |
| 20260830094521 | 68 | 184 | 0.0 | 0.0 | 0.00 | 0.40 | 0.00 | 95 | 1008.6 |
| 20260830093031 | 69 | 176 | 0.0 | 1.0 | 0.00 | 0.40 | 0.00 | 95 | 1008.4 |
| 20260830091520 | 69 | 175 | 1.0 | 2.0 | 0.00 | 0.40 | 0.00 | 95 | 1008.2 |
| 20260830090021 | 69 | 178 | 0.0 | 2.0 | 0.00 | 0.40 | 0.00 | 95 | 1008.2 |
| 20260830084517 | 69 | 178 | 0.0 | 3.0 | 0.00 | 0.53 | 0.00 | 95 | 1008.1 |
| 20260830083033 | 69 | 174 | 1.0 | 3.0 | 0.00 | 0.53 | 0.00 | 95 | 1008.0 |
| 20260830081515 | 69 | 177 | 0.0 | 0.0 | 0.00 | 0.53 | 0.00 | 95 | 1008.2 |
| 20260830080014 | 69 | 188 | 0.0 | 0.0 | 0.00 | 0.53 | 0.00 | 95 | 1008.2 |
| 20260830074512 | 69 | 200 | 0.0 | 2.0 | 0.00 | 0.59 | 0.00 | 95 | 1008.3 |
| 20260830073011 | 70 | 205 | 0.0 | 1.0 | 0.00 | 0.59 | 0.00 | 95 | 1008.4 |
| 20260830071514 | 70 | 168 | 1.0 | 4.0 | 0.00 | 0.59 | 0.00 | 95 | 1008.6 |
| 20260830070009 | 69 | 171 | 0.0 | 1.0 | 0.00 | 0.59 | 0.00 | 95 | 1008.5 |
| 20260830064510 | 69 | 182 | 0.0 | 4.0 | 0.00 | 0.59 | 0.00 | 95 | 1008.5 |
| 20260830063009 | 69 | 169 | 0.0 | 0.0 | 0.00 | 0.59 | 0.00 | 95 | 1008.5 |
| 20260830061506 | 69 | 176 | 0.0 | 0.0 | 0.00 | 0.59 | 0.00 | 95 | 1008.7 |
| 20260830060008 | 69 | 172 | 0.0 | 0.0 | 0.00 | 0.59 | 0.00 | 95 | 1008.8 |
| 20260830054502 | 69 | 168 | 1.0 | 3.0 | 0.00 | 0.59 | 0.00 | 94 | 1009.0 |
| 20260830053101 | 69 | 165 | 0.0 | 2.0 | 0.00 | 0.59 | 0.00 | 94 | 1009.4 |
| 20260830051557 | 69 | 165 | 0.0 | 2.0 | 0.00 | 0.59 | 0.00 | 94 | 1009.5 |